• Join FlightAware (Why Join?)
  • Login
  • US Flag GB Flag 
01:26 EDT


 

Airport Tracker/Info


-or-


 

Live Flight TrackerFlight Track Log ✈ DAL268 ✈ 15-May-2013 ✈ KATL - KJFK

Flight Track Log - Related Links

Times and Time Zones

All times are in EDT time to prevent confusion due to time zone crossing. See the DAL268 flight status page for this flight to view local times or setup timezone preferences in your user account.

Time Position Orientation Groundspeed Altitude Reporting Facility
EDT Latitude Longitude Course Direction KTS MPH feet Rate Location/Type
18:07 33.6333 -84.4833 64° Northeast 184 212 2,400  Level Atlanta TRACON
18:08 33.6000 -84.5500 239° Southwest 246 283 3,600 1,800 Climbing Atlanta TRACON
18:09 33.7132 -84.0121 101° East  Level FlightAware Approximate
18:09 33.5500 -84.5833 209° Southwest 272 313 6,000  Level Atlanta TRACON
18:10 33.6904 -83.8755 101° East  Level FlightAware Approximate
18:10 33.4667 -84.5667 171° South 288 331 8,700  Level Atlanta TRACON
18:11 33.6676 -83.7389 101° East  Level FlightAware Approximate
18:12 33.6616 -83.6049 64° Northeast  Level FlightAware Approximate
18:12 33.4578 -84.3450 93° East 332 382 11,700  Level Atlanta Center
18:13 33.4789 -84.2181 79° East 369 425 13,000 1,800 Climbing Atlanta Center
18:14 33.5333 -84.0936 62° Northeast 381 438 15,400 2,040 Climbing Atlanta Center
18:15 33.5856 -83.9639 64° Northeast 402 463 17,100 1,560 Climbing Atlanta Center
18:16 33.6228 -83.8242 72° East 428 493 18,600 1,380 Climbing Atlanta Center
18:17 33.6517 -83.6769 77° East 441 507 19,900 1,380 Climbing Atlanta Center
18:18 33.7056 -83.5319 66° East 463 533 21,400 1,380 Climbing Atlanta Center
18:19 33.7611 -83.3892 65° Northeast 473 544 22,700 1,200 Climbing Atlanta Center
18:20 33.8208 -83.2436 64° Northeast 480 552 23,900 1,200 Climbing Atlanta Center
18:21 33.8864 -83.0803 64° Northeast 486 559 25,200 1,620 Climbing Atlanta Center
18:22 33.9436 -82.9319 65° Northeast 486 559 27,200 1,380 Climbing Atlanta Center
18:23 34.0008 -82.7908 64° Northeast 479 551 28,000 840 Climbing Atlanta Center
18:24 34.0597 -82.6422 64° Northeast 479 551 28,900 840 Climbing Atlanta Center
18:25 34.1186 -82.4981 64° Northeast 479 551 29,700 720 Climbing Atlanta Center
18:26 34.1689 -82.3667 65° Northeast 479 551 30,400 780 Climbing Atlanta Center
18:27 34.2275 -82.2172 65° Northeast 484 557 31,300 720 Climbing Atlanta Center
18:28 34.2900 -82.0778 61° Northeast 479 551 31,900 360 Climbing Atlanta Center
18:29 34.3586 -81.9403 59° Northeast 479 551 32,100 360 Climbing Atlanta Center
18:30 34.4292 -81.8050 58° Northeast 474 545 32,700 420 Climbing Atlanta Center
18:31 34.4933 -81.6672 61° Northeast 468 539 33,000 120 Climbing Atlanta Center
18:32 34.5617 -81.5317 59° Northeast 468 539 33,000  Level Atlanta Center
18:33 34.6381 -81.3853 58° Northeast 478 550 33,000  Level Atlanta Center
18:34 34.7058 -81.2417 60° Northeast 480 552 33,000  Level Atlanta Center
18:35 34.7733 -81.1031 59° Northeast 484 557 33,000  Level Atlanta Center
18:36 34.8411 -80.9664 59° Northeast 474 545 33,000  Level Atlanta Center
18:38 34.9567 -80.7261 60° Northeast 476 548 33,000  Level Washington Center
18:39 35.0231 -80.5858 60° Northeast 471 542 33,000  Level Washington Center
18:40 35.0872 -80.4503 60° Northeast 471 542 33,000  Level Washington Center
18:41 35.1533 -80.3094 60° Northeast 471 542 33,000  Level Washington Center
18:42 35.2211 -80.1711 59° Northeast 471 542 33,000  Level Washington Center
18:43 35.2869 -80.0372 59° Northeast 462 532 33,000  Level Washington Center
18:44 35.3525 -79.8983 60° Northeast 462 532 33,000  Level Washington Center
18:45 35.4017 -79.7481 68° East 462 532 33,000  Level Washington Center
18:46 35.4464 -79.5950 70° East 462 532 33,000  Level Washington Center
18:47 35.4911 -79.4417 70° East 467 537 33,000  Level Washington Center
18:48 35.5425 -79.2703 70° East 478 550 33,000  Level Washington Center
18:49 35.5867 -79.1167 70° East 478 550 33,000  Level Washington Center
18:50 35.6261 -78.9778 71° East 478 550 33,000  Level Washington Center
18:51 35.6722 -78.8239 70° East 478 550 33,000  Level Washington Center
18:52 35.7181 -78.6644 70° East 483 556 33,000  Level Washington Center
18:53 35.7617 -78.5075 71° East 483 556 33,000  Level Washington Center
18:54 35.8031 -78.3503 72° East 476 548 33,000  Level Washington Center
18:55 35.8461 -78.1956 71° East 476 548 33,000  Level Washington Center
18:56 35.8869 -78.0403 72° East 476 548 33,000  Level Washington Center
18:57 35.9342 -77.8725 71° East 476 548 33,000  Level Washington Center
18:58 35.9764 -77.7197 71° East 476 548 33,000  Level Washington Center
18:59 36.0475 -77.5906 56° Northeast 465 535 33,000  Level Washington Center
19:00 36.1269 -77.4614 53° Northeast 462 532 33,000  Level Washington Center
19:01 36.1975 -77.3525 51° Northeast 467 537 33,000  Level Washington Center
19:02 36.2600 -77.2122 61° Northeast 467 537 33,000  Level Washington Center
19:03 36.3119 -77.0614 67° East 460 529 33,000  Level Washington Center
19:04 36.3617 -76.9125 67° East 460 529 33,000 -60 Level Washington Center
19:05 36.4153 -76.7714 65° Northeast 455 524 32,900  Descending Washington Center
19:06 36.5164 -76.6567 42° Northeast 447 514 33,000  Climbing Washington Center
19:07 36.6256 -76.5781 30° Northeast 430 495 33,000  Level Washington Center
19:08 36.7200 -76.5039 32° Northeast 441 507 33,000  Level Washington Center
19:09 36.8250 -76.4222 32° Northeast 441 507 33,000  Level Washington Center
19:10 36.9339 -76.3403 31° Northeast 441 507 33,000  Level Washington Center
19:11 37.0514 -76.2503 31° Northeast 446 513 33,000  Level Washington Center
19:12 37.1603 -76.1653 32° Northeast 451 519 33,000  Level Washington Center
19:13 37.2711 -76.0853 30° Northeast 451 519 33,000  Level Washington Center
19:14 37.3758 -76.0022 32° Northeast 451 519 33,000  Level Washington Center
19:15 37.4844 -75.9164 32° Northeast 451 519 33,000  Level Washington Center
19:16 37.5931 -75.8328 31° Northeast 451 519 33,000  Level Washington Center
19:17 37.7017 -75.7492 31° Northeast 451 519 33,000  Level Washington Center
19:18 37.8103 -75.6681 31° Northeast 451 519 33,000  Level Washington Center
19:19 37.9144 -75.5839 33° Northeast 451 519 33,000  Level Washington Center
19:20 38.0208 -75.4969 33° Northeast 451 519 33,000  Level Washington Center
19:21 38.1314 -75.4228 28° Northeast 445 512 33,000  Level Washington Center
19:22 38.2417 -75.3539 26° Northeast 440 506 33,000  Level Washington Center
19:23 38.3500 -75.2792 28° Northeast 440 506 33,000  Level Washington Center
19:24 38.4644 -75.2072 26° Northeast 440 506 33,000  Level Washington Center
19:25 38.5767 -75.1350 27° Northeast 440 506 33,000  Level Washington Center
19:26 38.6889 -75.0650 26° Northeast 447 514 33,000  Level Washington Center
19:27 38.7992 -74.9978 25° Northeast 447 514 33,000 -420 Level Washington Center
19:28 38.9072 -74.9247 28° Northeast 437 503 32,200 -1,200 Descending Washington Center
19:29 39.0111 -74.8597 26° Northeast 427 491 30,700 -1,680 Descending Washington Center
19:30 39.1106 -74.7864 30° Northeast 416 479 29,000 -1,860 Descending Washington Center
19:31 39.1975 -74.6917 40° Northeast 406 467 27,000 -1,860 Descending Washington Center
19:32 39.2822 -74.5994 40° Northeast 401 461 25,300 -1,740 Descending Washington Center
19:34 39.4528 -74.4167 40° Northeast 366 421 21,600 -1,920 Descending New York Center
19:35 39.5306 -74.3292 41° Northeast 361 415 19,400 -1,320 Descending New York Center
19:36 39.5994 -74.2544 40° Northeast 366 421 19,000 -960 Descending New York Center
19:37 39.6728 -74.1744 40° Northeast 360 414 17,500 -1,800 Descending New York Center
19:38 39.7525 -74.0839 41° Northeast 345 397 15,400 -1,920 Descending New York Center
19:39 39.8253 -74.0061 39° Northeast 340 391 13,700 -1,680 Descending New York Center
19:40 39.9000 -73.9475 31° Northeast 333 383 12,200 -1,380 Descending New York Center
19:41 39.9681 -73.8964 30° Northeast 316 364 11,000 -600 Descending New York Center
19:42 40.0350 -73.8100 45° Northeast 303 349 11,000 -720 Level New York Center
19:43 40.0972 -73.7339 43° Northeast 298 343 9,600 -1,500 Descending New York Center
19:44 40.1500 -73.7833 324° Northwest 237 273 8,100 -1,620 Descending New York TRACON
19:45 40.2000 -73.8333 323° Northwest 233 268 6,400 -1,740 Descending New York TRACON
19:46 40.2500 -73.9000 315° West 243 280 4,600 -1,620 Descending New York TRACON
19:47 40.3000 -73.9667 315° West 244 281 3,000 -1,500 Descending New York TRACON